Vancouver, WA

11:36 AM PST on January 18, 2017 (GMT -0800)
Portland International

Weather History for KPDX - November, 2013

Change the Weather History Date:

Wednesday, November 20, 2013

  Actual Average Record
Temperature  
Mean Temperature 40 °F 46 °F  
Max Temperature 49 °F 51 °F 63 °F (2002)
Min Temperature 31 °F 40 °F 25 °F (1964)
Degree Days  
Heating Degree Days 25 19  
Month to date heating degree days 324 340  
Since 1 July heating degree days 763 758  
Cooling Degree Days 0 0  
Month to date cooling degree days 0 0  
Year to date cooling degree days 539 424  
Moisture  
Dew Point 29 °F    
Average Humidity 71    
Maximum Humidity 89    
Minimum Humidity 53    
Precipitation  
Precipitation 0.00 in 0.19 in 1.50 in (1962)
Month to date precipitation 2.91 3.60  
Year to date precipitation 24.96 28.51  
Snow  
Snow 0.00 in - - ()
Month to date snowfall 0.0  
Snow Depth 0.00 in    
Sea Level Pressure  
Sea Level Pressure 30.25 in    
Wind  
Wind Speed 4 mph (NNW)    
Max Wind Speed 13 mph    
Max Gust Speed 16 mph    
Visibility 10 miles    
Events      
T = Trace of Precipitation, MM = Missing Value Source: NWS Daily Summary

Daily Weather History Graph

Daily Weather History Graph

Search for Another Location

Airport or City:

Trip Planner

Search our weather history database for the weather conditions in past years. The results will help you decide how hot, cold, wet, or windy it might be!

Date:

Astronomy

Nov. 20, 2013 Rise Set
Actual Time 7:16 AM PST 4:34 PM PST
Civil Twilight 6:44 AM PST 5:07 PM PST
Nautical Twilight 6:07 AM PST 5:43 PM PST
Astronomical Twilight 5:32 AM PST 6:19 PM PST
Moon 7:22 PM PST (11/20) 9:46 AM PST (11/20)
Length of Visible Light 10h 23m
Length of Day
9h 17m
Waning Gibbous, 91% of the Moon is Illuminated
Nov 20
Waning Gibbous
Nov 25
Last Quarter
Dec 2
New
Dec 9
First Quarter
Dec 17
Full

Hourly Weather History & Observations

Time (PST) Temp. Windchill Dew Point Humidity Pressure Visibility Wind Dir Wind Speed Gust Speed Precip Events Conditions
12:53 AM 35.1 °F 32.2 °F 28.9 °F 78% 30.06 in 10.0 mi WSW 3.5 mph - N/A   Scattered Clouds
1:53 AM 33.1 °F 30.0 °F 28.9 °F 85% 30.08 in 10.0 mi South 3.5 mph - N/A   Scattered Clouds
2:53 AM 34.0 °F - 28.9 °F 82% 30.10 in 10.0 mi Calm Calm - N/A   Clear
3:53 AM 36.0 °F 32.1 °F 30.0 °F 79% 30.12 in 10.0 mi NW 4.6 mph - N/A   Clear
4:53 AM 35.1 °F 29.3 °F 30.0 °F 82% 30.14 in 10.0 mi NNW 6.9 mph - N/A   Clear
5:53 AM 34.0 °F 29.8 °F 30.0 °F 85% 30.16 in 10.0 mi NNW 4.6 mph - N/A   Clear
6:53 AM 34.0 °F 29.8 °F 30.0 °F 85% 30.19 in 10.0 mi NNW 4.6 mph - N/A   Partly Cloudy
7:53 AM 32.0 °F - 28.9 °F 88% 30.21 in 10.0 mi Calm Calm - N/A   Partly Cloudy
8:53 AM 35.1 °F - 30.0 °F 82% 30.24 in 10.0 mi Calm Calm - N/A   Partly Cloudy
9:53 AM 37.9 °F - 30.0 °F 73% 30.25 in 10.0 mi Calm Calm - N/A   Scattered Clouds
10:53 AM 41.0 °F - 30.0 °F 65% 30.26 in 10.0 mi Calm Calm - N/A   Scattered Clouds
11:53 AM 43.0 °F 39.5 °F 32.0 °F 65% 30.25 in 10.0 mi NNW 5.8 mph - N/A   Scattered Clouds
12:53 PM 46.9 °F - 30.0 °F 52% 30.25 in 10.0 mi North 4.6 mph - N/A   Mostly Cloudy
1:53 PM 48.0 °F - 32.0 °F 54% 30.25 in 10.0 mi NNW 6.9 mph - N/A   Mostly Cloudy
2:53 PM 46.0 °F 41.4 °F 32.0 °F 58% 30.27 in 10.0 mi NNW 9.2 mph - N/A   Scattered Clouds
3:53 PM 45.0 °F 40.6 °F 30.9 °F 58% 30.29 in 10.0 mi North 8.1 mph - N/A   Partly Cloudy
4:53 PM 43.0 °F 38.8 °F 30.9 °F 62% 30.31 in 10.0 mi North 6.9 mph - N/A   Partly Cloudy
5:53 PM 41.0 °F 37.1 °F 30.9 °F 67% 30.33 in 10.0 mi Variable 5.8 mph - N/A   Partly Cloudy
6:53 PM 39.9 °F 36.7 °F 30.0 °F 68% 30.34 in 10.0 mi North 4.6 mph - N/A   Clear
7:53 PM 37.0 °F 33.3 °F 28.9 °F 73% 30.37 in 10.0 mi WNW 4.6 mph - N/A   Clear
8:53 PM 37.0 °F 33.3 °F 26.1 °F 65% 30.38 in 10.0 mi NW 4.6 mph - N/A   Clear
9:53 PM 34.0 °F - 24.1 °F 67% 30.40 in 10.0 mi Calm Calm - N/A   Clear
10:53 PM 33.1 °F 26.9 °F 24.1 °F 70% 30.42 in 10.0 mi WNW 6.9 mph - N/A   Clear
11:53 PM 32.0 °F 27.5 °F 25.0 °F 75% 30.44 in 10.0 mi Variable 4.6 mph - N/A   Clear